Regional Weather Roundup
Issued by NWS

Home | Current Version | Previous Version | Graphics & Text | Print | Product List | Glossary On
Versions: 1 2 3 4 5 6 7 8 9 10 11 12 13 14 15 16 17 18 19 20 21 22 23 24 25 26 27 28 29 30 31 32 33 34 35 36 37 38 39 40 41 42 43 44 45 46 47 48 49 50
000
ASUS43 KTOP 091959
RWRKS

WEATHER ROUNDUP FOR KANSAS
NATIONAL WEATHER SERVICE GOODLAND KS
300 PM CDT WED JUL 09 2014

NOTE:  "FAIR" INDICATES FEW OR NO CLOUDS BELOW 12,000 FEET WITH NO
SIGNIFICANT WEATHER AND/OR OBSTRUCTIONS TO VISIBILITY.

KSZ001>006-013>018-027>032-041>047-092100-
NORTHWEST KANSAS

CITY           SKY/WX    TMP DP  RH WIND       PRES   REMARKS
GOODLAND       MOSUNNY   85  61  44 S22G28    30.03F
HAYS           SUNNY     86  61  42 S14G23    30.05F
HILL CITY      SUNNY     90  56  31 S14G23    30.02F
RUSSELL        SUNNY     87  59  38 S15G24    30.03F
$$

KSZ061>065-074>080-084>089-092100-
SOUTHWEST KANSAS

CITY           SKY/WX    TMP DP  RH WIND       PRES   REMARKS
DODGE CITY     SUNNY     85  64  49 S21G28    30.06F
ELKHART          N/A     90  60  36 SE16        N/A
GARDEN CITY    MOSUNNY   85  64  49 SW24G30   30.04F
GREAT BEND     CLOUDY    86  59  39 SE13      30.04S
LIBERAL        MOSUNNY   88  63  42 S17       30.06F
$$

KSZ066>073-081>083-090>101-092100-
SOUTHEAST KANSAS

CITY           SKY/WX    TMP DP  RH WIND       PRES   REMARKS
CHANUTE        SUNNY     86  55  34 SE8       30.05F
COFFEYVILLE    SUNNY     88  59  37 NW6       30.03F
HUTCHINSON     SUNNY     89  58  34 S8G18     30.04F
MEDICINE LODGE   N/A     89  59  36 S12G21    30.02F
NEWTON         SUNNY     88  55  33 S8        30.08F
PARSONS        CLOUDY    86  58  38 S3        30.05F
WICHITA INTL   PTSUNNY   88  61  40 SE6       30.04F
WICHITA JABRA  SUNNY     87  63  44 VRB7      30.04F
WINFIELD       SUNNY     86  64  47 CALM      30.04F
$$

KSZ007>012-019>026-033>040-048>060-102>105-092100-
NORTHEAST KANSAS

CITY           SKY/WX    TMP DP  RH WIND       PRES   REMARKS
CONCORDIA      SUNNY     85  58  39 S9G17     30.04F
EMPORIA        SUNNY     86  56  35 VRB3      30.05F
LAWRENCE       SUNNY     84  60  44 NW7       30.06S
MANHATTAN      SUNNY     87  54  32 MISG      30.03F
OLATHE IND     SUNNY     84  59  42 NW7       30.07S
OLATHE EXE     MOSUNNY   82  59  45 W8        30.06S
SALINA         SUNNY     90  58  33 VRB6      30.03F
TOPEKA BILLARD SUNNY     88  57  34 N5        30.05F
TOPEKA FORBES  SUNNY     86  57  37 W7        30.06F
$$


USA.gov is the U.S. government's official web portal to all federal, state and local government web resources and services.